Location: Melbourne
(37.8170°S, 144.9670°E)
Time: 09:47:53
(UTC+11:00)

CZ-3 R/B - Visible Passes

Search period start: 26 October 2014 00:00
Search period end: 05 November 2014 00:00
Orbit: 203 x 14748 km, 28.5° (Epoch: 24 October)

Date Brightness Start Highest point End Pass type
(mag) Time Alt. Az. Time Alt. Az. Time Alt. Az.
26 Oct 5.8 02:25:20 10° W 03:06:55 58° NNW 05:22:53 10° NNE visible
26 Oct 3.5 20:09:30 10° NNW 20:15:43 37° NE 20:41:30 10° E visible
27 Oct 5.4 00:50:41 10° W 01:15:56 66° NNW 03:34:22 10° NE visible
27 Oct 6.6 05:55:14 10° W 06:54:15 24° WNW 08:27:35 10° NNW visible
27 Oct 4.7 23:16:53 10° WNW 23:31:48 68° N 01:26:38 10° ENE visible
28 Oct 6.2 04:07:55 10° W 05:04:26 41° NW 07:02:00 10° N visible
28 Oct 3.9 21:43:23 10° WNW 21:52:33 61° NNE 22:56:33 10° E visible
29 Oct 5.8 02:28:16 10° W 03:09:17 54° NNW 05:22:48 10° NNE visible
29 Oct 3.3 20:10:08 10° NW 20:16:08 40° NE 20:42:12 10° E visible
30 Oct 5.4 00:51:10 10° W 01:16:07 64° NNW 03:31:49 10° NE visible
30 Oct 6.6 05:58:08 10° W 06:52:05 21° WNW 08:19:09 10° NNW visible
30 Oct 4.7 23:15:01 10° W 23:29:39 67° N 01:20:57 10° ENE visible
31 Oct 6.2 04:06:04 10° W 04:59:58 38° NW 06:55:45 10° N visible
31 Oct 3.8 21:39:14 10° WNW 21:48:06 61° NNE 22:48:40 10° E visible
01 Nov 5.8 02:23:42 10° W 03:02:53 51° NNW 05:14:25 10° NNE visible
01 Nov 3.2 20:03:40 10° NW 20:09:20 41° NNE 20:33:40 10° E visible
02 Nov 5.4 00:44:16 10° W 01:08:00 61° NNW 03:19:53 10° NE visible
02 Nov 6.6 05:52:22 10° W 06:42:11 19° WNW 08:04:17 10° NNW visible
02 Nov 4.6 23:05:55 10° W 23:19:42 65° N 01:04:03 10° ENE visible
03 Nov 6.2 03:56:23 10° W 04:47:10 36° NW 06:42:01 10° N visible
03 Nov 3.7 21:27:55 10° WNW 21:36:11 60° NNE 22:29:57 10° E visible
04 Nov 5.7 02:11:39 10° W 02:48:00 49° NNW 04:57:41 10° NNE visible
04 Nov 3.0 19:50:08 10° NW 19:55:20 40° NNE 20:16:22 10° E visible
